[[{"header":{"parameterUnit":"m.s-1","parameterCategory":1,"la1":30.2991,"la2":30.254,"lo1":-89.0895,"lo2":-89.0444,"dy":0.0017,"dx":0.0017,"nx":28,"ny":28,"refTime":"2023-08-04T03:00:00:Z","depth":0,"parameterNumber":2,"parameterNumberName":"U-component_of_WINDS"},"data":[0,0,0,0,0,0,0,0,0,0,0,0,0,0,0,0,0,0,0,0,0,0,0,0,0,0,0,0,0,0,0,0,0,0,0,0,0,0,0,0,0,0,0,0,0,0,0,0,0,0,0,0,0,0,0,0,0,0,-0.5721,-0.572,0,-0.5624,-0.5623,-0.5622,-0.5567,-0.5567,-0.5567,-0.5567,-0.5466,-0.5463,-0.5461,0,0,0,0,0,0,0,0,0,0,0,0,0,-0.586,-0.5858,-0.5721,-0.572,-0.5719,-0.5624,-0.5623,-0.5622,-0.5567,-0.5567,-0.5567,-0.5567,-0.5467,-0.5464,-0.5461,0,0,0,0,0,0,0,0,0,0,0,0,0,-0.5785,-0.5857,-0.5722,-0.568,-0.5676,-0.5625,-0.5623,-0.5621,-0.5567,-0.5567,-0.5567,-0.5567,-0.5468,-0.5464,-0.546,-0.5442,0,0,-0.5449,-0.5447,0,0,0,0,0,0,0,0,-0.579,-0.578,-0.5688,-0.5683,-0.5678,-0.5608,-0.5635,-0.5561,-0.5567,-0.5609,-0.5567,-0.5567,-0.5513,-0.5506,-0.5488,-0.5437,-0.5433,-0.5448,-0.5446,-0.5444,-0.5443,0,0,0,0,0,0,0,-0.5795,-0.5784,-0.5683,-0.5686,-0.568,-0.5667,-0.5656,-0.5621,-0.5563,-0.5605,-0.5601,-0.559,-0.551,-0.5492,-0.5485,-0.5432,-0.5449,-0.5445,-0.5443,-0.5441,-0.5364,-0.5364,0,0,0,0,0,0,-0.5807,-0.5789,-0.5686,-0.568,-0.5734,-0.5665,-0.5653,-0.563,-0.5564,-0.5553,-0.559,-0.5588,-0.5498,-0.549,-0.5481,-0.5457,-0.5445,-0.5441,-0.5439,-0.5363,-0.5364,-0.5364,0,0,0,0,0,0,-0.581,-0.5798,-0.569,-0.5733,-0.5718,-0.5663,-0.5638,-0.5629,-0.561,-0.5553,-0.5542,-0.5582,-0.5498,-0.5487,-0.5453,-0.5453,-0.5439,-0.5436,-0.5363,-0.5363,-0.5364,-0.5407,0,0,0,0,0,0,-0.5814,-0.58,-0.5792,-0.5734,-0.5716,-0.5663,-0.5638,-0.5627,-0.5604,-0.5599,-0.5542,-0.5532,-0.5497,-0.5459,-0.5449,-0.5447,-0.5433,-0.5363,-0.5363,-0.5364,-0.5405,-0.5409,-0.5412,0,0,0,0,0,-0.5819,-0.5807,-0.5792,-0.5779,-0.5705,-0.5663,-0.5653,-0.5613,-0.5604,-0.5596,-0.556,-0.5534,-0.5455,-0.5456,-0.5444,-0.5441,-0.5363,-0.5363,-0.5364,-0.5404,-0.5408,-0.5412,0,0,0,0,0,0,-0.5865,-0.5798,-0.5781,-0.5749,-0.5712,-0.5654,-0.5642,-0.5618,-0.5583,-0.558,-0.5532,-0.552,-0.5491,-0.5463,-0.5465,-0.5421,-0.5406,-0.5404,-0.5441,-0.5444,-0.5447,-0.5454,-0.543,0,0,0,0,0,-0.5872,-0.5843,-0.5786,-0.5764,-0.5747,-0.5698,-0.5678,-0.5651,-0.561,-0.5594,-0.5555,-0.5517,-0.5484,-0.5462,-0.5428,-0.5402,-0.5389,-0.5394,-0.5397,-0.54,-0.5399,-0.5385,-0.5387,-0.5365,-0.5365,-0.5365,0,0,-0.5885,-0.5845,-0.5829,-0.5772,-0.574,-0.5712,-0.5685,-0.5655,-0.5634,-0.5589,-0.5555,-0.5526,-0.548,-0.5451,-0.5435,-0.5426,-0.5402,-0.5401,-0.5403,-0.54,-0.5385,-0.5387,-0.5389,-0.5366,-0.5366,-0.5366,0,0,-0.5894,-0.5861,-0.5839,-0.5809,-0.5762,-0.573,-0.5725,-0.567,-0.565,-0.5615,-0.5582,-0.5556,-0.5499,-0.5468,-0.5445,-0.5447,-0.5422,-0.5437,-0.5453,-0.544,-0.5441,-0.5442,-0.5444,-0.5445,-0.5436,-0.5436,-0.5436,0,-0.5916,-0.5872,-0.5831,-0.5804,-0.5781,-0.5741,-0.5719,-0.5691,-0.5635,-0.562,-0.5611,-0.554,-0.5506,-0.547,-0.5471,-0.5453,-0.5447,-0.5442,-0.5444,-0.5445,-0.5446,-0.5447,-0.5447,-0.5438,-0.5438,-0.5438,-0.5438,0,-0.5902,-0.5872,-0.586,-0.5809,-0.5784,-0.576,-0.5716,-0.5696,-0.5672,-0.5641,-0.5608,-0.5567,-0.5524,-0.5514,-0.5489,-0.5475,-0.547,-0.5454,-0.5437,-0.5451,-0.5451,-0.545,-0.5441,-0.544,-0.544,-0.5439,0,0,-0.5935,-0.5863,-0.5859,-0.5836,-0.5783,-0.5759,-0.5734,-0.5694,-0.5678,-0.5642,-0.562,-0.5575,-0.556,-0.5534,-0.5506,-0.5494,-0.5499,-0.5478,-0.5477,-0.5484,-0.5482,-0.5495,-0.5496,-0.5483,-0.5483,-0.5483,-0.5486,0,-0.5936,-0.5889,-0.5853,-0.582,-0.5793,-0.5756,-0.5735,-0.57,-0.5672,-0.5645,-0.5613,-0.5582,-0.5564,-0.5549,-0.5536,-0.5502,-0.5498,-0.5501,-0.5463,-0.5462,-0.5475,-0.5496,-0.5509,-0.5513,-0.5486,-0.5486,-0.5486,0,-0.5931,-0.5898,-0.5862,-0.5814,-0.5801,-0.5782,-0.5744,-0.5718,-0.5679,-0.5659,-0.5632,-0.5604,-0.5577,-0.5565,-0.5527,-0.553,-0.5513,-0.5494,-0.5493,-0.5488,-0.5474,-0.5491,-0.5513,-0.5514,-0.5485,-0.5485,-0.5485,0,-0.596,-0.5906,-0.5878,-0.5859,-0.5802,-0.579,-0.5765,-0.5726,-0.5705,-0.5672,-0.5658,-0.5622,-0.5602,-0.5575,-0.5538,-0.5532,-0.5505,-0.5489,-0.5488,-0.549,-0.5483,-0.5484,-0.5504,-0.5473,-0.5473,-0.5473,-0.5473,0,-0.5965,-0.5945,-0.589,-0.5873,-0.585,-0.581,-0.5788,-0.5761,-0.5727,-0.5704,-0.567,-0.565,-0.5603,-0.5577,-0.5549,-0.5523,-0.5514,-0.5498,-0.549,-0.5501,-0.5503,-0.5488,-0.5487,-0.5473,-0.5473,-0.5473,-0.5473,0,-0.5992,-0.5955,-0.5922,-0.5871,-0.5858,-0.5844,-0.5801,-0.5783,-0.5754,-0.5727,-0.5718,-0.5672,-0.5641,-0.5602,-0.5557,-0.5538,-0.5516,-0.5504,-0.5529,-0.5525,-0.5527,-0.5527,-0.5537,-0.5537,-0.5507,-0.5507,-0.5507,0,-0.5998,-0.5982,-0.593,-0.5913,-0.589,-0.5862,-0.5841,-0.5802,-0.5782,-0.5737,-0.5726,-0.5692,-0.5663,-0.5614,-0.5577,-0.5544,-0.5531,-0.5537,-0.5526,-0.5538,-0.5532,-0.5533,-0.5532,-0.554,-0.554,-0.5541,-0.5541,0,-0.6012,-0.5995,-0.5966,-0.5931,-0.5907,-0.5878,-0.5847,-0.5835,-0.579,-0.5769,-0.5737,-0.5714,-0.567,-0.5637,-0.56,-0.5575,-0.5551,-0.5546,-0.5544,-0.5554,-0.5569,-0.5562,-0.5537,-0.5545,-0.5545,-0.5544,-0.5544,-0.5544,-0.6028,-0.6013,-0.5975,-0.5945,-0.5918,-0.589,-0.5872,-0.5842,-0.5815,-0.5776,-0.5755,-0.5724,-0.5687,-0.5635,-0.5611,-0.5587,-0.5578,-0.5575,-0.5574,-0.5574,-0.5578,-0.5574,-0.558,-0.558,-0.5579,-0.5579,-0.5579,0,-0.6041,-0.6015,-0.5988,-0.5947,-0.5924,-0.5904,-0.587,-0.5852,-0.5825,-0.5793,-0.5766,-0.573,-0.5699,-0.5661,-0.5628,-0.5616,-0.5604,-0.5608,-0.5608,-0.5603,-0.5587,-0.5592,-0.5618,-0.5618,-0.5618,-0.5618,-0.5618,-0.5618,-0.6045,-0.6019,-0.5998,-0.5959,-0.5933,-0.5903,-0.5885,-0.586,-0.5835,-0.5797,-0.5771,-0.5747,-0.5713,-0.5678,-0.5649,-0.5639,-0.5628,-0.5636,-0.5622,-0.5608,-0.5604,-0.5601,-0.5606,-0.5634,-0.5634,-0.564,-0.5641,-0.5641]},{"header":{"parameterUnit":"m.s-1","parameterCategory":1,"la1":30.2991,"la2":30.254,"lo1":-89.0895,"lo2":-89.0444,"dy":0.0017,"dx":0.0017,"nx":28,"ny":28,"refTime":"2023-08-04T03:00:00:Z","depth":0,"parameterNumber":3,"parameterNumberName":"V-component_of_WINDS"},"data":[0,0,0,0,0,0,0,0,0,0,0,0,0,0,0,0,0,0,0,0,0,0,0,0,0,0,0,0,0,0,0,0,0,0,0,0,0,0,0,0,0,0,0,0,0,0,0,0,0,0,0,0,0,0,0,0,0,0,3.4485,3.4485,0,3.4459,3.4459,3.4458,3.4498,3.45,3.4501,3.4502,3.4469,3.4467,3.4465,0,0,0,0,0,0,0,0,0,0,0,0,0,3.4564,3.4563,3.4485,3.4485,3.4485,3.4459,3.4459,3.4458,3.4498,3.45,3.4501,3.4503,3.447,3.4467,3.4465,0,0,0,0,0,0,0,0,0,0,0,0,0,3.4533,3.4562,3.4485,3.4502,3.4503,3.4459,3.4459,3.4458,3.4498,3.45,3.4502,3.4504,3.4471,3.4467,3.4464,3.4401,0,0,3.4454,3.4453,0,0,0,0,0,0,0,0,3.4535,3.453,3.4499,3.45,3.4502,3.4484,3.4474,3.4439,3.4497,3.4499,3.4502,3.4505,3.4472,3.4469,3.4459,3.44,3.4399,3.4454,3.4452,3.445,3.4449,0,0,0,0,0,0,0,3.4537,3.4531,3.4475,3.4499,3.45,3.4508,3.4506,3.4468,3.4474,3.4499,3.4502,3.4499,3.4473,3.4462,3.4458,3.4398,3.4454,3.4451,3.4449,3.4448,3.4285,3.4283,0,0,0,0,0,0,3.4538,3.4533,3.4476,3.4474,3.4524,3.4505,3.4503,3.4487,3.4474,3.4475,3.4497,3.4501,3.4467,3.4462,3.4457,3.4382,3.445,3.4447,3.4445,3.4287,3.4284,3.4282,0,0,0,0,0,0,3.4539,3.4532,3.4477,3.4504,3.4498,3.4501,3.4484,3.4486,3.4475,3.4473,3.4474,3.4485,3.4468,3.4462,3.4415,3.4381,3.4446,3.4443,3.429,3.4286,3.4283,3.4231,0,0,0,0,0,0,3.4541,3.4533,3.451,3.4503,3.4496,3.4436,3.4482,3.4484,3.447,3.4475,3.4462,3.4462,3.4469,3.442,3.4412,3.4378,3.444,3.4293,3.4288,3.4284,3.4236,3.4227,3.4218,0,0,0,0,0,3.4544,3.4496,3.4509,3.4502,3.4468,3.4435,3.443,3.4442,3.4467,3.4443,3.4442,3.4462,3.4387,3.4415,3.4406,3.4371,3.4295,3.429,3.4285,3.424,3.4228,3.4219,0,0,0,0,0,0,3.4496,3.4495,3.451,3.4458,3.4446,3.4441,3.4412,3.4429,3.4408,3.4413,3.4427,3.4423,3.4373,3.4367,3.4399,3.4309,3.4345,3.4338,3.4314,3.4303,3.4294,3.4296,3.4438,0,0,0,0,0,3.448,3.4455,3.4454,3.4408,3.4402,3.4408,3.4394,3.4404,3.4391,3.4386,3.4381,3.4366,3.4339,3.4321,3.4296,3.4236,3.4233,3.4207,3.4199,3.4191,3.4184,3.415,3.4139,3.4265,3.4265,3.4265,0,0,3.4445,3.4442,3.4424,3.4399,3.4391,3.4362,3.4403,3.4371,3.4349,3.438,3.4336,3.4332,3.4316,3.4262,3.4238,3.4256,3.4149,3.4185,3.4179,3.4176,3.4144,3.4132,3.4121,3.4261,3.4262,3.4262,0,0,3.4367,3.4363,3.4324,3.4316,3.4304,3.4308,3.4299,3.4291,3.429,3.4247,3.4269,3.4242,3.4196,3.4184,3.4172,3.4089,3.4106,3.4081,3.4034,3.4001,3.3991,3.3982,3.3951,3.394,3.4074,3.4074,3.4074,0,3.4325,3.4285,3.4301,3.4268,3.4255,3.4284,3.4243,3.4233,3.4213,3.4203,3.4224,3.4166,3.4158,3.4101,3.4081,3.407,3.4058,3.4081,3.3991,3.3983,3.3974,3.3945,3.3933,3.4071,3.4071,3.4071,3.4072,0,3.4232,3.4204,3.4174,3.4155,3.4139,3.4102,3.4111,3.4092,3.4104,3.4106,3.406,3.4051,3.4025,3.4012,3.4022,3.3956,3.3967,3.399,3.4026,3.3959,3.3931,3.392,3.4066,3.4067,3.4068,3.4069,0,0,3.4122,3.4114,3.4103,3.4094,3.4084,3.4061,3.4025,3.4001,3.3984,3.3969,3.3937,3.3898,3.3918,3.3904,3.3914,3.3885,3.3818,3.391,3.391,3.3892,3.3742,3.3725,3.3711,3.383,3.3828,3.3827,3.3743,0,3.4043,3.3983,3.3996,3.3935,3.3908,3.3936,3.3904,3.3892,3.3893,3.3868,3.3868,3.384,3.387,3.3861,3.3834,3.3832,3.3788,3.3839,3.3798,3.3797,3.38,3.3697,3.3678,3.36,3.3733,3.3731,3.373,0,3.3943,3.3926,3.3863,3.3857,3.3846,3.3817,3.3796,3.3773,3.376,3.3763,3.3747,3.3762,3.3724,3.3762,3.3708,3.3742,3.3727,3.3723,3.372,3.3716,3.3758,3.3688,3.3576,3.3563,3.3713,3.3714,3.3716,0,3.3867,3.3828,3.3786,3.3778,3.377,3.3748,3.3744,3.3734,3.3718,3.3699,3.3689,3.3665,3.3651,3.3631,3.3638,3.3666,3.3582,3.3622,3.3581,3.3581,3.3561,3.3562,3.3443,3.3554,3.3554,3.3554,3.3554,0,3.3776,3.3736,3.3751,3.3725,3.368,3.3696,3.365,3.3648,3.3639,3.3611,3.3633,3.3606,3.3618,3.3591,3.3596,3.355,3.3543,3.3543,3.3544,3.354,3.354,3.3528,3.3533,3.3551,3.3552,3.3552,3.3553,0,3.3683,3.3692,3.3646,3.3643,3.3641,3.3608,3.3604,3.3578,3.3581,3.3545,3.3538,3.3541,3.351,3.3516,3.3482,3.3485,3.3427,3.3436,3.3432,3.3433,3.3392,3.3395,3.326,3.3242,3.3366,3.3365,3.3364,0,3.3623,3.3594,3.3587,3.3571,3.3565,3.3539,3.3524,3.3538,3.352,3.3504,3.3479,3.3452,3.343,3.3379,3.3377,3.335,3.3358,3.3313,3.3354,3.335,3.3355,3.3356,3.3353,3.3304,3.3302,3.3301,3.33,0,3.3517,3.3523,3.3502,3.3481,3.3463,3.3447,3.3433,3.3418,3.3431,3.341,3.338,3.3363,3.3329,3.33,3.3276,3.3268,3.3285,3.3288,3.3276,3.3271,3.3269,3.3268,3.3407,3.329,3.3291,3.3292,3.3292,3.3293,3.3438,3.3412,3.3404,3.3379,3.337,3.3357,3.3332,3.3333,3.3309,3.3283,3.3293,3.3258,3.3245,3.3214,3.3204,3.3176,3.3193,3.3177,3.3173,3.3168,3.3163,3.3275,3.3172,3.3172,3.3172,3.3172,3.3173,0,3.3331,3.3327,3.3305,3.3285,3.3265,3.3286,3.3271,3.3252,3.3222,3.321,3.3188,3.3153,3.3125,3.3122,3.3095,3.3073,3.308,3.3065,3.3066,3.3063,3.315,3.3162,3.306,3.306,3.306,3.306,3.306,3.306,3.3273,3.3231,3.3236,3.3188,3.3185,3.3152,3.3142,3.3129,3.3119,3.308,3.3058,3.3056,3.3047,3.302,3.2994,3.2994,3.2982,3.2964,3.2966,3.3046,3.3057,3.3068,3.3079,3.2961,3.2961,3.2882,3.2881,3.288]}]]